When you browse on this site, cookies collect data to enhance your experience and personalize the content and advertising you see.
Visit our Privacy Policy to learn more. By continuing to use the site, you agree to this use of cookies and data.
  • In Hungary
  • List of Countries
  • For 7 days
  • Water Temperature
  • Weather Map
  • News
  • Weather Widgets
  • user-avatar
    Login

    Hourly Weather Maybulak

    Today, 11 December, Wednesday

    Time Temperature Precipitation Wind Pressure Humidity
    00:00 +4°C° 0 mm 1 mps 651 mmHg 80%
    01:00 +4°C° 0 mm 1 mps 651 mmHg 80%
    02:00 +2°C° 0 mm 0 mps 651 mmHg 81%
    03:00 +3°C° 0 mm 1 mps 651 mmHg 81%
    04:00 +3°C° 0 mm 1 mps 651 mmHg 81%
    05:00 +3°C° 0 mm 1 mps 651 mmHg 81%
    06:00 +3°C° 0 mm 1 mps 651 mmHg 80%
    07:00 +3°C° 0 mm 1 mps 651 mmHg 79%
    08:00 +3°C° 0 mm 1 mps 651 mmHg 78%
    09:00 +4°C° 0 mm 1 mps 651 mmHg 76%
    10:00 +5°C° 0 mm 1 mps 651 mmHg 74%
    11:00 +6°C° 0 mm 1 mps 651 mmHg 72%
    12:00 +6°C° 0 mm 1 mps 651 mmHg 72%
    13:00 +6°C° 0 mm 1 mps 651 mmHg 72%
    14:00 +6°C° 0 mm 1 mps 650 mmHg 72%
    15:00 +5°C° 0 mm 1 mps 650 mmHg 74%
    16:00 +5°C° 0 mm 1 mps 650 mmHg 75%
    17:00 +3°C° 0 mm 0 mps 650 mmHg 77%
    18:00 +4°C° 0 mm 1 mps 650 mmHg 75%
    19:00 +3°C° 0 mm 1 mps 650 mmHg 74%
    20:00 +3°C° 0 mm 1 mps 650 mmHg 72%
    21:00 +3°C° 0 mm 1 mps 649 mmHg 70%
    22:00 +3°C° 0 mm 1 mps 649 mmHg 68%
    23:00 +3°C° 0 mm 1 mps 649 mmHg 66%

    Tomorrow, 12 December, Thursday

    Time Temperature Precipitation Wind Pressure Humidity
    00:00 +2°C° 0 mm 1 mps 649 mmHg 64%
    01:00 +1°C° 0 mm 2 mps 648 mmHg 62%
    02:00 +1°C° 0 mm 2 mps 648 mmHg 60%
    03:00 +1°C° 0 mm 2 mps 648 mmHg 60%
    04:00 +1°C° 0 mm 2 mps 648 mmHg 61%
    05:00 +1°C° 0 mm 2 mps 648 mmHg 61%
    06:00 +1°C° 0 mm 2 mps 648 mmHg 63%
    07:00 +2°C° 0 mm 1 mps 648 mmHg 64%
    08:00 +2°C° 0 mm 1 mps 649 mmHg 66%
    09:00 +3°C° 0 mm 1 mps 649 mmHg 70%
    10:00 +2°C° 0 mm 2 mps 649 mmHg 75%
    11:00 +3°C° 0 mm 2 mps 649 mmHg 80%
    12:00 +4°C° 0.1 mm 2 mps 649 mmHg 76%
    13:00 +3°C° 0.1 mm 3 mps 649 mmHg 72%
    14:00 +4°C° 0.1 mm 3 mps 649 mmHg 68%
    15:00 +3°C° 0.1 mm 3 mps 649 mmHg 74%
    16:00 +3°C° 0.1 mm 2 mps 649 mmHg 79%
    17:00 +2°C° 0.1 mm 2 mps 649 mmHg 84%
    18:00 +2°C° 0.5 mm 2 mps 649 mmHg 86%
    19:00 +2°C° 0.5 mm 2 mps 649 mmHg 88%
    20:00 0°C° 0.5 mm 3 mps 649 mmHg 89%
    21:00 0°C° 0.6 mm 3 mps 649 mmHg 89%
    22:00 0°C° 0.6 mm 3 mps 648 mmHg 88%
    23:00 -2°C° 0.6 mm 4 mps 648 mmHg 88%

    Day after tomorrow, 13 December, Friday

    Time Temperature Precipitation Wind Pressure Humidity
    00:00 -2°C° 0.5 mm 4 mps 648 mmHg 88%
    01:00 -1°C° 0.5 mm 3 mps 648 mmHg 88%
    02:00 -1°C° 0.5 mm 3 mps 648 mmHg 88%
    03:00 -1°C° 0.7 mm 3 mps 648 mmHg 90%
    04:00 -1°C° 0.7 mm 3 mps 648 mmHg 92%
    05:00 -2°C° 0.7 mm 3 mps 647 mmHg 94%
    06:00 -2°C° 0.7 mm 3 mps 647 mmHg 94%
    07:00 -3°C° 0.7 mm 4 mps 648 mmHg 94%
    08:00 -3°C° 0.7 mm 4 mps 648 mmHg 94%
    09:00 -2°C° 0.2 mm 5 mps 648 mmHg 91%
    10:00 -1°C° 0.2 mm 5 mps 648 mmHg 87%
    11:00 -2°C° 0.2 mm 6 mps 648 mmHg 83%
    12:00 -1°C° 0.1 mm 6 mps 648 mmHg 80%
    13:00 -1°C° 0.1 mm 7 mps 647 mmHg 77%
    14:00 -1°C° 0.1 mm 7 mps 647 mmHg 74%
    15:00 -1°C° 0.2 mm 7 mps 647 mmHg 77%
    16:00 -2°C° 0.2 mm 7 mps 647 mmHg 81%
    17:00 -3°C° 0.2 mm 6 mps 647 mmHg 84%
    18:00 -3°C° 0.4 mm 6 mps 647 mmHg 86%
    19:00 -4°C° 0.4 mm 5 mps 647 mmHg 89%
    20:00 -4°C° 0.4 mm 5 mps 648 mmHg 91%
    21:00 -5°C° 1.6 mm 5 mps 648 mmHg 93%
    22:00 -4°C° 1.6 mm 4 mps 647 mmHg 94%
    23:00 -5°C° 1.6 mm 4 mps 647 mmHg 96%

    14 December, Saturday

    Time Temperature Precipitation Wind Pressure Humidity
    00:00 -5°C° 2.5 mm 4 mps 647 mmHg 96%
    01:00 -6°C° 2.5 mm 3 mps 647 mmHg 96%
    02:00 -5°C° 2.5 mm 2 mps 647 mmHg 97%
    03:00 -5°C° 2 mm 2 mps 648 mmHg 97%
    04:00 -6°C° 2 mm 2 mps 648 mmHg 97%
    05:00 -6°C° 2 mm 2 mps 648 mmHg 96%
    06:00 -7°C° 0.6 mm 2 mps 649 mmHg 96%
    07:00 -7°C° 0.6 mm 2 mps 649 mmHg 95%
    08:00 -8°C° 0.6 mm 2 mps 650 mmHg 94%
    09:00 -7°C° 0 mm 2 mps 651 mmHg 93%
    10:00 -6°C° 0 mm 2 mps 651 mmHg 91%
    11:00 -6°C° 0 mm 2 mps 652 mmHg 89%
    12:00 -6°C° 0 mm 2 mps 652 mmHg 89%
    13:00 -5°C° 0 mm 2 mps 653 mmHg 88%
    14:00 -5°C° 0 mm 2 mps 653 mmHg 87%
    15:00 -6°C° 0 mm 2 mps 653 mmHg 83%
    16:00 -7°C° 0 mm 2 mps 653 mmHg 78%
    17:00 -8°C° 0 mm 2 mps 653 mmHg 74%
    18:00 -9°C° 0 mm 2 mps 653 mmHg 68%
    19:00 -9°C° 0 mm 2 mps 653 mmHg 62%
    20:00 -10°C° 0 mm 2 mps 653 mmHg 57%
    21:00 -9°C° 0 mm 2 mps 654 mmHg 53%
    22:00 -9°C° 0 mm 2 mps 654 mmHg 50%
    23:00 -9°C° 0 mm 2 mps 654 mmHg 47%

    15 December, Sunday

    Time Temperature Precipitation Wind Pressure Humidity
    00:00 -9°C° 0 mm 2 mps 654 mmHg 47%
    01:00 -9°C° 0 mm 2 mps 654 mmHg 46%
    02:00 -8°C° 0 mm 2 mps 654 mmHg 46%
    03:00 -7°C° 0 mm 1 mps 654 mmHg 47%
    04:00 -7°C° 0 mm 1 mps 654 mmHg 48%
    05:00 -6°C° 0 mm 1 mps 654 mmHg 49%
    06:00 -6°C° 0 mm 1 mps 654 mmHg 48%
    07:00 -7°C° 0 mm 1 mps 654 mmHg 47%
    08:00 -7°C° 0 mm 1 mps 654 mmHg 47%
    09:00 -4°C° 0 mm 1 mps 655 mmHg 52%
    10:00 -3°C° 0 mm 1 mps 655 mmHg 58%
    11:00 -2°C° 0 mm 1 mps 656 mmHg 63%
    12:00 -3°C° 0 mm 0 mps 655 mmHg 66%
    13:00 -2°C° 0 mm 0 mps 655 mmHg 69%
    14:00 -2°C° 0 mm 0 mps 655 mmHg 72%
    15:00 -3°C° 0 mm 1 mps 654 mmHg 66%
    16:00 -4°C° 0 mm 1 mps 654 mmHg 61%
    17:00 -7°C° 0 mm 2 mps 654 mmHg 56%
    18:00 -7°C° 0 mm 2 mps 654 mmHg 52%
    19:00 -7°C° 0 mm 2 mps 654 mmHg 49%
    20:00 -7°C° 0 mm 2 mps 654 mmHg 46%
    21:00 -7°C° 0 mm 2 mps 654 mmHg 45%
    22:00 -7°C° 0 mm 2 mps 654 mmHg 44%
    23:00 -8°C° 0 mm 3 mps 654 mmHg 43%

    16 December, Monday

    Time Temperature Precipitation Wind Pressure Humidity
    00:00 -8°C° 0 mm 3 mps 654 mmHg 42%
    01:00 -8°C° 0 mm 3 mps 654 mmHg 41%
    02:00 -8°C° 0 mm 3 mps 654 mmHg 40%
    03:00 -8°C° 0 mm 3 mps 654 mmHg 39%
    04:00 -7°C° 0 mm 2 mps 654 mmHg 37%
    05:00 -7°C° 0 mm 2 mps 654 mmHg 36%
    06:00 -8°C° 0 mm 3 mps 654 mmHg 35%
    07:00 -8°C° 0 mm 3 mps 654 mmHg 35%
    08:00 -8°C° 0 mm 3 mps 654 mmHg 34%
    09:00 -5°C° 0 mm 2 mps 655 mmHg 42%
    10:00 -4°C° 0 mm 2 mps 655 mmHg 49%
    11:00 0°C° 0 mm 1 mps 656 mmHg 57%
    12:00 0°C° 0 mm 1 mps 656 mmHg 59%
    13:00 0°C° 0 mm 1 mps 656 mmHg 61%
    14:00 -1°C° 0 mm 0 mps 655 mmHg 62%
    15:00 -1°C° 0 mm 1 mps 655 mmHg 55%
    16:00 -4°C° 0 mm 2 mps 655 mmHg 48%
    17:00 -6°C° 0 mm 2 mps 655 mmHg 40%
    18:00 -6°C° 0 mm 2 mps 655 mmHg 37%
    19:00 -7°C° 0 mm 3 mps 655 mmHg 35%
    20:00 -7°C° 0 mm 3 mps 655 mmHg 32%
    21:00 -7°C° 0 mm 3 mps 655 mmHg 31%
    22:00 -7°C° 0 mm 3 mps 655 mmHg 31%
    23:00 -7°C° 0 mm 3 mps 655 mmHg 30%
    Show more